NKS779 KDTW-KDFW

Flight info

Callsign NKS779
Flight time 2h 19m
Altitude 36000
Route SNDRS3 BGHRT STL RZC FSM RRNET SEEVR4
Aircraft A320/M-SDE3FGHIRWY/LB1

Departure

Time 2026-05-04 22:33
Airport Detroit Metropolitan Wayne County Airport (KDTW)

Arrival

Time 2026-05-05 00:53
Airport Dallas Fort Worth International Airport (KDFW)
Time Latitude Longitude Altitude Speed Heading
2026-05-04 21:54 42.22477 -83.34992 646 ft 0 kts 146°
2026-05-04 22:21 42.22489 -83.35003 646 ft 4 kts 146°
2026-05-04 22:22 42.22507 -83.35019 647 ft 3 kts 145°
2026-05-04 22:22 42.22529 -83.35038 649 ft 4 kts 163°
2026-05-04 22:22 42.22549 -83.35037 647 ft 3 kts 208°
2026-05-04 22:22 42.22563 -83.35027 646 ft 0 kts 208°
2026-05-04 22:25 42.22557 -83.35031 648 ft 1 kts 208°
2026-05-04 22:25 42.22551 -83.35038 648 ft 4 kts 220°
2026-05-04 22:25 42.22536 -83.35097 646 ft 10 kts 254°
2026-05-04 22:25 42.22499 -83.35177 646 ft 11 kts 216°
2026-05-04 22:26 42.22431 -83.35228 646 ft 11 kts 208°
2026-05-04 22:26 42.22360 -83.35280 647 ft 12 kts 208°
2026-05-04 22:26 42.22286 -83.35344 647 ft 13 kts 215°
2026-05-04 22:26 42.22204 -83.35411 646 ft 14 kts 209°
2026-05-04 22:27 42.22116 -83.35476 647 ft 15 kts 208°
2026-05-04 22:27 42.22023 -83.35546 645 ft 16 kts 208°
2026-05-04 22:27 42.21935 -83.35587 645 ft 13 kts 168°
2026-05-04 22:27 42.21855 -83.35528 646 ft 13 kts 148°
2026-05-04 22:28 42.21822 -83.35427 645 ft 13 kts 89°
2026-05-04 22:28 42.21824 -83.35296 648 ft 15 kts 89°
2026-05-04 22:28 42.21825 -83.35154 646 ft 15 kts 89°
2026-05-04 22:28 42.21830 -83.35006 646 ft 16 kts 87°
2026-05-04 22:29 42.21833 -83.34849 646 ft 17 kts 89°
2026-05-04 22:29 42.21835 -83.34682 646 ft 18 kts 89°
2026-05-04 22:29 42.21844 -83.34534 648 ft 15 kts 64°
2026-05-04 22:29 42.21930 -83.34446 646 ft 16 kts 29°
2026-05-04 22:30 42.22034 -83.34367 647 ft 18 kts 28°
2026-05-04 22:30 42.22147 -83.34285 647 ft 19 kts 28°
2026-05-04 22:30 42.22266 -83.34199 646 ft 20 kts 28°
2026-05-04 22:30 42.22390 -83.34107 646 ft 21 kts 29°
2026-05-04 22:31 42.22519 -83.34012 646 ft 21 kts 28°
2026-05-04 22:31 42.22653 -83.33914 646 ft 22 kts 28°
2026-05-04 22:31 42.22771 -83.33827 647 ft 14 kts 28°
2026-05-04 22:31 42.22839 -83.33778 645 ft 7 kts 27°
2026-05-04 22:32 42.22862 -83.33744 645 ft 3 kts 76°
2026-05-04 22:32 42.22854 -83.33702 644 ft 6 kts 116°
2026-05-04 22:32 42.22826 -83.33642 645 ft 8 kts 139°
2026-05-04 22:32 42.22775 -83.33656 646 ft 8 kts 208°
2026-05-04 22:33 42.22636 -83.33758 648 ft 50 kts 208°
2026-05-04 22:33 42.22148 -83.34118 647 ft 107 kts 208°
2026-05-04 22:33 42.21356 -83.34699 668 ft 149 kts 207°
2026-05-04 22:33 42.20475 -83.35331 1406 ft 134 kts 211°
2026-05-04 22:34 42.19677 -83.35907 2175 ft 128 kts 213°
2026-05-04 22:34 42.18863 -83.36465 2682 ft 140 kts 205°
2026-05-04 22:34 42.17832 -83.36798 2889 ft 163 kts 198°
2026-05-04 22:34 42.16673 -83.37158 3166 ft 179 kts 200°
2026-05-04 22:35 42.15400 -83.37618 3460 ft 201 kts 201°
2026-05-04 22:35 42.13975 -83.38196 3747 ft 226 kts 202°
2026-05-04 22:35 42.12402 -83.38832 4229 ft 243 kts 201°
2026-05-04 22:35 42.10763 -83.39483 5023 ft 248 kts 201°
2026-05-04 22:36 42.09092 -83.40134 5832 ft 252 kts 201°
2026-05-04 22:36 42.07440 -83.40925 6577 ft 253 kts 211°
2026-05-04 22:36 42.05954 -83.42214 6902 ft 254 kts 219°
2026-05-04 22:36 42.04531 -83.43617 6983 ft 253 kts 220°
2026-05-04 22:37 42.03113 -83.45016 7033 ft 253 kts 220°
2026-05-04 22:37 42.01693 -83.46417 7028 ft 253 kts 220°
2026-05-04 22:37 42.00274 -83.47814 7025 ft 253 kts 220°
2026-05-04 22:37 41.98849 -83.49210 7028 ft 254 kts 220°
2026-05-04 22:38 41.97425 -83.50648 7502 ft 257 kts 221°
2026-05-04 22:38 41.96006 -83.52116 8340 ft 258 kts 222°
2026-05-04 22:38 41.94579 -83.53599 9110 ft 261 kts 222°
2026-05-04 22:38 41.93141 -83.55094 9881 ft 262 kts 223°
2026-05-04 22:39 41.91676 -83.56614 10384 ft 274 kts 223°
2026-05-04 22:39 41.90109 -83.58250 10523 ft 297 kts 223°
2026-05-04 22:39 41.88419 -83.60012 10646 ft 319 kts 222°
2026-05-04 22:39 41.86633 -83.61861 10767 ft 338 kts 222°
2026-05-04 22:40 41.84719 -83.63828 10969 ft 353 kts 221°
2026-05-04 22:40 41.82750 -83.65844 11459 ft 359 kts 221°
2026-05-04 22:40 41.80786 -83.67851 11995 ft 362 kts 221°
2026-05-04 22:40 41.78746 -83.69933 12614 ft 364 kts 221°
2026-05-04 22:41 41.76727 -83.71992 13204 ft 366 kts 221°
2026-05-04 22:41 41.74692 -83.74072 13722 ft 370 kts 221°
2026-05-04 22:41 41.72637 -83.76171 14206 ft 373 kts 221°
2026-05-04 22:41 41.70566 -83.78286 14681 ft 377 kts 221°
2026-05-04 22:42 41.68355 -83.80230 15163 ft 383 kts 216°
2026-05-04 22:42 41.66065 -83.82080 15633 ft 386 kts 216°
2026-05-04 22:42 41.63753 -83.83939 16095 ft 390 kts 215°
2026-05-04 22:42 41.61416 -83.85814 16562 ft 393 kts 215°
2026-05-04 22:43 41.59058 -83.87701 16978 ft 397 kts 215°
2026-05-04 22:43 41.56675 -83.89605 17415 ft 401 kts 215°
2026-05-04 22:43 41.54270 -83.91527 17871 ft 405 kts 215°
2026-05-04 22:43 41.51849 -83.93463 18303 ft 407 kts 215°
2026-05-04 22:44 41.49411 -83.95412 18716 ft 410 kts 215°
2026-05-04 22:44 41.46956 -83.97381 19136 ft 413 kts 215°
2026-05-04 22:44 41.44485 -83.99361 19544 ft 416 kts 214°
2026-05-04 22:44 41.41996 -84.01347 19942 ft 419 kts 214°
2026-05-04 22:45 41.39484 -84.03347 20303 ft 422 kts 214°
2026-05-04 22:45 41.34409 -84.07383 21006 ft 428 kts 214°
2026-05-04 22:45 41.31845 -84.09412 21360 ft 430 kts 214°
2026-05-04 22:46 41.29286 -84.11481 21700 ft 431 kts 218°
2026-05-04 22:46 41.26962 -84.13974 22031 ft 429 kts 227°
2026-05-04 22:46 41.24998 -84.16948 22327 ft 429 kts 237°
2026-05-04 22:46 41.23447 -84.20323 22673 ft 427 kts 245°
2026-05-04 22:47 41.22289 -84.23958 22958 ft 429 kts 250°
2026-05-04 22:47 41.21189 -84.27647 23369 ft 428 kts 250°
2026-05-04 22:47 41.20091 -84.31310 23780 ft 426 kts 249°
2026-05-04 22:47 41.18992 -84.34961 24195 ft 425 kts 249°
2026-05-04 22:48 41.17896 -84.38597 24609 ft 424 kts 249°
2026-05-04 22:48 41.16804 -84.42222 24998 ft 423 kts 250°
2026-05-04 22:48 41.15716 -84.45845 25453 ft 421 kts 250°
2026-05-04 22:48 41.14633 -84.49455 25883 ft 421 kts 249°
2026-05-04 22:49 41.13548 -84.53058 26287 ft 420 kts 250°
2026-05-04 22:49 41.12463 -84.56645 26765 ft 419 kts 249°
2026-05-04 22:49 41.11391 -84.60186 27188 ft 419 kts 250°
2026-05-04 22:49 41.10337 -84.63828 27644 ft 417 kts 254°
2026-05-04 22:50 41.09642 -84.67497 28068 ft 415 kts 258°
2026-05-04 22:50 41.09008 -84.71290 28470 ft 416 kts 258°
2026-05-04 22:50 41.08388 -84.74971 28938 ft 414 kts 258°
2026-05-04 22:50 41.07759 -84.78691 29378 ft 414 kts 258°
2026-05-04 22:51 41.07128 -84.82408 29798 ft 413 kts 258°
2026-05-04 22:51 41.06499 -84.86114 30217 ft 411 kts 258°
2026-05-04 22:51 41.05873 -84.89808 30613 ft 411 kts 258°
2026-05-04 22:51 41.05245 -84.93497 30983 ft 410 kts 258°
2026-05-04 22:52 41.04618 -84.97174 31397 ft 408 kts 258°
2026-05-04 22:52 41.03993 -85.00839 31806 ft 407 kts 258°
2026-05-04 22:52 41.03368 -85.04494 32196 ft 407 kts 258°
2026-05-04 22:52 41.02744 -85.08136 32614 ft 405 kts 258°
2026-05-04 22:53 41.02121 -85.11774 32990 ft 404 kts 258°
2026-05-04 22:53 41.01498 -85.15397 33374 ft 404 kts 258°
2026-05-04 22:53 41.00873 -85.19019 33757 ft 403 kts 258°
2026-05-04 22:53 41.00246 -85.22627 34082 ft 402 kts 258°
2026-05-04 22:54 40.99618 -85.26225 34404 ft 400 kts 258°
2026-05-04 22:54 40.98993 -85.29812 34729 ft 399 kts 258°
2026-05-04 22:54 40.98372 -85.33385 35053 ft 398 kts 258°
2026-05-04 22:54 40.97751 -85.36945 35364 ft 397 kts 258°
2026-05-04 22:55 40.97132 -85.40494 35644 ft 396 kts 258°
2026-05-04 22:55 40.96511 -85.44047 35714 ft 398 kts 258°
2026-05-04 22:55 40.95246 -85.51288 35731 ft 410 kts 258°
2026-05-04 22:56 40.93941 -85.58689 35727 ft 415 kts 258°
2026-05-04 22:56 40.92626 -85.66121 35728 ft 415 kts 258°
2026-05-04 22:57 40.91306 -85.73556 35729 ft 415 kts 258°
2026-05-04 22:57 40.89978 -85.80992 35732 ft 416 kts 258°
2026-05-04 22:58 40.88649 -85.88429 35721 ft 416 kts 259°
2026-05-04 22:58 40.87783 -85.95970 35716 ft 415 kts 263°
2026-05-04 22:59 40.87115 -86.02259 35723 ft 416 kts 263°
2026-05-04 22:59 40.86300 -86.09814 35720 ft 416 kts 263°
2026-05-04 23:00 40.85485 -86.17373 35731 ft 416 kts 263°
2026-05-04 23:00 40.84657 -86.24929 35716 ft 415 kts 262°
2026-05-04 23:01 40.83828 -86.32469 35745 ft 415 kts 262°
2026-05-04 23:01 40.83002 -86.39998 35746 ft 414 kts 262°
2026-05-04 23:02 40.82173 -86.47520 35744 ft 414 kts 262°
2026-05-04 23:02 40.81335 -86.55029 35741 ft 414 kts 262°
2026-05-04 23:03 40.80493 -86.62544 35738 ft 414 kts 262°
2026-05-04 23:03 40.79643 -86.70051 35735 ft 414 kts 262°
2026-05-04 23:04 40.78788 -86.77552 35732 ft 414 kts 262°
2026-05-04 23:04 40.77934 -86.85061 35728 ft 414 kts 262°
2026-05-04 23:05 40.77072 -86.92562 35730 ft 414 kts 262°
2026-05-04 23:05 40.76203 -87.00069 35734 ft 414 kts 262°
2026-05-04 23:06 40.75333 -87.07566 35722 ft 413 kts 262°
2026-05-04 23:06 40.74461 -87.15060 35714 ft 414 kts 262°
2026-05-04 23:07 40.73577 -87.22554 35708 ft 414 kts 262°
2026-05-04 23:07 40.72691 -87.30046 35714 ft 414 kts 262°
2026-05-04 23:08 40.71806 -87.37490 35701 ft 414 kts 261°
2026-05-04 23:08 40.70914 -87.44982 35703 ft 414 kts 261°
2026-05-04 23:09 40.70009 -87.52480 35707 ft 414 kts 261°
2026-05-04 23:09 40.69094 -87.59969 35693 ft 414 kts 261°
2026-05-04 23:10 40.68180 -87.67466 35705 ft 414 kts 261°
2026-05-04 23:10 40.67268 -87.74960 35697 ft 415 kts 261°
2026-05-04 23:11 40.66346 -87.82464 35692 ft 416 kts 261°
2026-05-04 23:11 40.65275 -87.89942 35678 ft 417 kts 253°
2026-05-04 23:12 40.62646 -87.96732 35695 ft 421 kts 234°
2026-05-04 23:12 40.58777 -88.02546 35681 ft 423 kts 231°
2026-05-04 23:13 40.54868 -88.08331 35684 ft 423 kts 231°
2026-05-04 23:13 40.50952 -88.14121 35709 ft 424 kts 231°
2026-05-04 23:14 40.47035 -88.19906 35712 ft 424 kts 231°
2026-05-04 23:14 40.43105 -88.25690 35702 ft 424 kts 231°
2026-05-04 23:15 40.39173 -88.31466 35707 ft 425 kts 231°
2026-05-04 23:15 40.35234 -88.37245 35709 ft 425 kts 231°
2026-05-04 23:16 40.31290 -88.43009 35712 ft 425 kts 231°
2026-05-04 23:16 40.27339 -88.48765 35713 ft 425 kts 231°
2026-05-04 23:17 40.23392 -88.54521 35698 ft 424 kts 231°
2026-05-04 23:17 40.19448 -88.60264 35716 ft 424 kts 231°
2026-05-04 23:18 40.15499 -88.65994 35716 ft 424 kts 231°
2026-05-04 23:18 40.11549 -88.71725 35718 ft 424 kts 231°
2026-05-04 23:19 40.07594 -88.77441 35724 ft 424 kts 231°
2026-05-04 23:19 40.03665 -88.83116 35720 ft 424 kts 231°
2026-05-04 23:20 39.99706 -88.88819 35696 ft 425 kts 231°
2026-05-04 23:20 39.95733 -88.94538 35695 ft 426 kts 231°
2026-05-04 23:21 39.91748 -89.00259 35702 ft 427 kts 231°
2026-05-04 23:21 39.87751 -89.05982 35709 ft 427 kts 231°
2026-05-04 23:22 39.83754 -89.11707 35716 ft 427 kts 231°
2026-05-04 23:22 39.79747 -89.17427 35693 ft 427 kts 231°
2026-05-04 23:23 39.75740 -89.23135 35713 ft 427 kts 231°
2026-05-04 23:23 39.71734 -89.28836 35728 ft 427 kts 231°
2026-05-04 23:24 39.67726 -89.34542 35732 ft 427 kts 231°
2026-05-04 23:24 39.63712 -89.40233 35736 ft 428 kts 231°
2026-05-04 23:25 39.59689 -89.45921 35735 ft 428 kts 231°
2026-05-04 23:25 39.55668 -89.51599 35715 ft 428 kts 231°
2026-05-04 23:26 39.51637 -89.57269 35725 ft 428 kts 231°
2026-05-04 23:26 39.47604 -89.62932 35728 ft 428 kts 231°
2026-05-04 23:27 39.43573 -89.68594 35723 ft 428 kts 231°
2026-05-04 23:27 39.39539 -89.74252 35718 ft 427 kts 231°
2026-05-04 23:28 39.35504 -89.79897 35718 ft 428 kts 231°
2026-05-04 23:28 39.31465 -89.85543 35698 ft 428 kts 232°
2026-05-04 23:29 39.27443 -89.91162 35700 ft 429 kts 232°
2026-05-04 23:29 39.23378 -89.96815 35717 ft 430 kts 232°
2026-05-04 23:30 39.19305 -90.02466 35708 ft 430 kts 232°
2026-05-04 23:30 39.15234 -90.08111 35722 ft 430 kts 232°
2026-05-04 23:31 39.11166 -90.13738 35710 ft 429 kts 233°
2026-05-04 23:31 39.07095 -90.19362 35715 ft 429 kts 233°
2026-05-04 23:32 39.03024 -90.24967 35698 ft 429 kts 233°
2026-05-04 23:32 38.98955 -90.30576 35699 ft 429 kts 233°
2026-05-04 23:33 38.94880 -90.36180 35699 ft 429 kts 233°
2026-05-04 23:33 38.90798 -90.41768 35688 ft 429 kts 233°
2026-05-04 23:34 38.86718 -90.47336 35685 ft 428 kts 234°
2026-05-04 23:34 38.82716 -90.52964 35697 ft 426 kts 236°
2026-05-04 23:35 38.78872 -90.58721 35722 ft 424 kts 237°
2026-05-04 23:35 38.75038 -90.64473 35716 ft 424 kts 236°
2026-05-04 23:36 38.71154 -90.70171 35711 ft 425 kts 236°
2026-05-04 23:36 38.67260 -90.75853 35704 ft 425 kts 236°
2026-05-04 23:37 38.63366 -90.81529 35700 ft 423 kts 237°
2026-05-04 23:37 38.59489 -90.87178 35715 ft 422 kts 237°
2026-05-04 23:38 38.55615 -90.92815 35717 ft 421 kts 237°
2026-05-04 23:38 38.51753 -90.98435 35724 ft 421 kts 237°
2026-05-04 23:39 38.47889 -91.04038 35720 ft 420 kts 237°
2026-05-04 23:39 38.44021 -91.09630 35723 ft 420 kts 237°
2026-05-04 23:40 38.40151 -91.15218 35754 ft 420 kts 238°
2026-05-04 23:40 38.36285 -91.20798 35774 ft 419 kts 238°
2026-05-04 23:41 38.32450 -91.26320 35768 ft 419 kts 238°
2026-05-04 23:41 38.28587 -91.31870 35769 ft 418 kts 238°
2026-05-04 23:42 38.24727 -91.37405 35765 ft 418 kts 238°
2026-05-04 23:42 38.20863 -91.42935 35760 ft 418 kts 238°
2026-05-04 23:43 38.16996 -91.48458 35742 ft 418 kts 238°
2026-05-04 23:43 38.13129 -91.53973 35721 ft 418 kts 239°
2026-05-04 23:44 38.09266 -91.59489 35755 ft 418 kts 239°
2026-05-04 23:44 38.05400 -91.64994 35766 ft 418 kts 239°
2026-05-04 23:45 38.01524 -91.70493 35766 ft 418 kts 239°
2026-05-04 23:45 37.97656 -91.75985 35765 ft 418 kts 239°
2026-05-04 23:46 37.94436 -91.80548 35746 ft 418 kts 239°
2026-05-04 23:46 37.90557 -91.86022 35721 ft 417 kts 239°
2026-05-04 23:47 37.86677 -91.91486 35738 ft 417 kts 239°
2026-05-04 23:47 37.82799 -91.96937 35756 ft 416 kts 239°
2026-05-04 23:48 37.78938 -92.02367 35761 ft 415 kts 239°
2026-05-04 23:48 37.75081 -92.07786 35765 ft 414 kts 239°
2026-05-04 23:49 37.71227 -92.13193 35769 ft 414 kts 239°
2026-05-04 23:49 37.67369 -92.18584 35743 ft 414 kts 240°
2026-05-04 23:50 37.63510 -92.23966 35750 ft 413 kts 240°
2026-05-04 23:50 37.59650 -92.29347 35742 ft 413 kts 240°
2026-05-04 23:51 37.55796 -92.34709 35755 ft 412 kts 240°
2026-05-04 23:51 37.51952 -92.40046 35770 ft 411 kts 240°
2026-05-04 23:52 37.48138 -92.45331 35776 ft 410 kts 240°
2026-05-04 23:52 37.44280 -92.50671 35736 ft 409 kts 240°
2026-05-04 23:53 37.40454 -92.55963 35750 ft 409 kts 240°
2026-05-04 23:53 37.36654 -92.61220 35759 ft 409 kts 240°
2026-05-04 23:54 37.32823 -92.66494 35757 ft 408 kts 240°
2026-05-04 23:54 37.28996 -92.71754 35765 ft 407 kts 240°
2026-05-04 23:55 37.25183 -92.76989 35769 ft 406 kts 240°
2026-05-04 23:56 37.19483 -92.84803 35742 ft 404 kts 241°
2026-05-04 23:56 37.15687 -92.89992 35762 ft 403 kts 241°
2026-05-04 23:57 37.11899 -92.95156 35774 ft 402 kts 241°
2026-05-04 23:57 37.08120 -93.00313 35778 ft 401 kts 241°
2026-05-04 23:58 37.04352 -93.05465 35754 ft 401 kts 242°
2026-05-04 23:58 37.00576 -93.10599 35777 ft 400 kts 242°
2026-05-04 23:59 36.96804 -93.15706 35784 ft 399 kts 242°
2026-05-04 23:59 36.93049 -93.20794 35757 ft 398 kts 242°
2026-05-05 00:00 36.89296 -93.25870 35776 ft 398 kts 242°
2026-05-05 00:00 36.85540 -93.30943 35787 ft 397 kts 242°
2026-05-05 00:01 36.81785 -93.36003 35798 ft 397 kts 242°
2026-05-05 00:01 36.78029 -93.41056 35802 ft 397 kts 242°
2026-05-05 00:02 36.74277 -93.46108 35801 ft 397 kts 242°
2026-05-05 00:02 36.70520 -93.51157 35799 ft 397 kts 242°
2026-05-05 00:03 36.66763 -93.56191 35771 ft 397 kts 243°
2026-05-05 00:03 36.63035 -93.61187 35779 ft 396 kts 243°
2026-05-05 00:04 36.59281 -93.66209 35783 ft 396 kts 243°
2026-05-05 00:04 36.55524 -93.71225 35780 ft 396 kts 243°
2026-05-05 00:05 36.51757 -93.76240 35789 ft 397 kts 243°
2026-05-05 00:05 36.47993 -93.81241 35800 ft 396 kts 242°
2026-05-05 00:06 36.44187 -93.86202 35809 ft 406 kts 236°
2026-05-05 00:06 36.41750 -93.88211 35766 ft 432 kts 225°
2026-05-05 00:06 36.39088 -93.89973 35774 ft 435 kts 224°
2026-05-05 00:07 36.33679 -93.93414 35783 ft 438 kts 223°
2026-05-05 00:07 36.28237 -93.96828 35798 ft 439 kts 223°
2026-05-05 00:08 36.22810 -94.00264 35812 ft 438 kts 224°
2026-05-05 00:08 36.17395 -94.03719 35782 ft 438 kts 223°
2026-05-05 00:09 36.11973 -94.07177 35804 ft 438 kts 223°
2026-05-05 00:09 36.06549 -94.10635 35805 ft 439 kts 223°
2026-05-05 00:10 36.01112 -94.14085 35809 ft 439 kts 223°
2026-05-05 00:10 35.95672 -94.17533 35815 ft 440 kts 223°
2026-05-05 00:11 35.90226 -94.20981 35798 ft 440 kts 223°
2026-05-05 00:11 35.84821 -94.24396 35790 ft 439 kts 223°
2026-05-05 00:12 35.79371 -94.27827 35791 ft 440 kts 223°
2026-05-05 00:12 35.73924 -94.31258 35799 ft 440 kts 223°
2026-05-05 00:13 35.68479 -94.34680 35797 ft 440 kts 223°
2026-05-05 00:13 35.63027 -94.38102 35776 ft 440 kts 223°
2026-05-05 00:14 35.57565 -94.41520 35786 ft 440 kts 223°
2026-05-05 00:14 35.52100 -94.44939 35796 ft 441 kts 223°
2026-05-05 00:15 35.46634 -94.48357 35802 ft 441 kts 223°
2026-05-05 00:15 35.41162 -94.51768 35754 ft 442 kts 223°
2026-05-05 00:16 35.35676 -94.55181 35769 ft 443 kts 222°
2026-05-05 00:16 35.30182 -94.58595 35772 ft 443 kts 222°
2026-05-05 00:17 35.24686 -94.62009 35791 ft 443 kts 222°
2026-05-05 00:17 35.19191 -94.65420 35798 ft 443 kts 222°
2026-05-05 00:18 35.13695 -94.68825 35760 ft 443 kts 222°
2026-05-05 00:18 35.08190 -94.72231 35778 ft 444 kts 222°
2026-05-05 00:19 35.02667 -94.75628 35774 ft 445 kts 222°
2026-05-05 00:19 34.97142 -94.79027 35778 ft 445 kts 222°
2026-05-05 00:20 34.91617 -94.82433 35795 ft 445 kts 222°
2026-05-05 00:20 34.86084 -94.85836 35760 ft 446 kts 222°
2026-05-05 00:21 34.80849 -94.89589 35772 ft 422 kts 234°
2026-05-05 00:21 34.76398 -94.94158 35779 ft 419 kts 235°
2026-05-05 00:22 34.71933 -94.98726 35788 ft 419 kts 235°
2026-05-05 00:22 34.67465 -95.03276 35794 ft 419 kts 234°
2026-05-05 00:23 34.63025 -95.07798 35802 ft 419 kts 234°
2026-05-05 00:23 34.58557 -95.12342 35790 ft 419 kts 234°
2026-05-05 00:24 34.54093 -95.16885 35792 ft 419 kts 234°
2026-05-05 00:24 34.49620 -95.21417 35807 ft 419 kts 234°
2026-05-05 00:25 34.45139 -95.25945 35811 ft 419 kts 234°
2026-05-05 00:25 34.40658 -95.30468 35817 ft 419 kts 234°
2026-05-05 00:26 34.36168 -95.34976 35804 ft 420 kts 234°
2026-05-05 00:26 34.31678 -95.39474 35799 ft 419 kts 234°
2026-05-05 00:27 34.27200 -95.43972 35815 ft 418 kts 234°
2026-05-05 00:27 34.22738 -95.48467 35785 ft 418 kts 234°
2026-05-05 00:27 34.20502 -95.50709 35537 ft 417 kts 234°
2026-05-05 00:28 34.18263 -95.52940 35298 ft 418 kts 234°
2026-05-05 00:28 34.16018 -95.55175 35059 ft 419 kts 234°
2026-05-05 00:28 34.13769 -95.57415 34664 ft 420 kts 234°
2026-05-05 00:28 34.11501 -95.59681 33849 ft 425 kts 234°
2026-05-05 00:29 34.09211 -95.61980 32869 ft 431 kts 233°
2026-05-05 00:29 34.06892 -95.64299 31975 ft 435 kts 232°
2026-05-05 00:29 34.04548 -95.66633 31034 ft 440 kts 232°
2026-05-05 00:29 34.02171 -95.68990 30066 ft 445 kts 231°
2026-05-05 00:30 33.99758 -95.71378 28912 ft 451 kts 230°
2026-05-05 00:30 33.97345 -95.73758 28443 ft 442 kts 230°
2026-05-05 00:30 33.95000 -95.76053 28219 ft 428 kts 230°
2026-05-05 00:30 33.92724 -95.78294 27825 ft 419 kts 230°
2026-05-05 00:31 33.90492 -95.80516 27236 ft 414 kts 230°
2026-05-05 00:31 33.88292 -95.82732 26627 ft 411 kts 230°
2026-05-05 00:31 33.86113 -95.84936 26034 ft 408 kts 229°
2026-05-05 00:31 33.83946 -95.87122 25440 ft 406 kts 228°
2026-05-05 00:32 33.81781 -95.89290 24851 ft 403 kts 227°
2026-05-05 00:32 33.79622 -95.91429 24260 ft 401 kts 227°
2026-05-05 00:32 33.77500 -95.93518 23689 ft 399 kts 227°
2026-05-05 00:32 33.75332 -95.95654 23135 ft 395 kts 226°
2026-05-05 00:33 33.73238 -95.97714 22472 ft 394 kts 226°
2026-05-05 00:33 33.71814 -95.99113 22140 ft 390 kts 226°
2026-05-05 00:33 33.69041 -96.01838 21348 ft 387 kts 226°
2026-05-05 00:33 33.67637 -96.03215 20977 ft 385 kts 226°
2026-05-05 00:34 33.65567 -96.05248 20477 ft 382 kts 226°
2026-05-05 00:34 33.63507 -96.07274 19907 ft 381 kts 226°
2026-05-05 00:34 33.61467 -96.09282 19315 ft 380 kts 226°
2026-05-05 00:34 33.59437 -96.11277 18921 ft 375 kts 225°
2026-05-05 00:35 33.57430 -96.13245 18392 ft 373 kts 225°
2026-05-05 00:35 33.55425 -96.15216 17836 ft 371 kts 225°
2026-05-05 00:35 33.53436 -96.17168 17270 ft 369 kts 225°
2026-05-05 00:35 33.51462 -96.19101 16714 ft 365 kts 225°
2026-05-05 00:36 33.49503 -96.21018 16176 ft 362 kts 225°
2026-05-05 00:36 33.47564 -96.22914 15810 ft 355 kts 224°
2026-05-05 00:36 33.45692 -96.24739 15672 ft 341 kts 225°
2026-05-05 00:37 33.42083 -96.29291 14740 ft 327 kts 234°
2026-05-05 00:37 33.40605 -96.31336 14364 ft 323 kts 233°
2026-05-05 00:37 33.39132 -96.33366 13926 ft 323 kts 233°
2026-05-05 00:37 33.37658 -96.35390 13485 ft 322 kts 233°
2026-05-05 00:38 33.36195 -96.37400 13053 ft 319 kts 233°
2026-05-05 00:38 33.34778 -96.39342 12770 ft 301 kts 233°
2026-05-05 00:38 33.33431 -96.41207 12272 ft 291 kts 236°
2026-05-05 00:38 33.32417 -96.43254 11851 ft 284 kts 250°
2026-05-05 00:39 33.31772 -96.45455 11552 ft 279 kts 254°
2026-05-05 00:39 33.31158 -96.47646 11246 ft 277 kts 253°
2026-05-05 00:39 33.30547 -96.49807 11036 ft 270 kts 253°
2026-05-05 00:39 33.29950 -96.51913 10828 ft 265 kts 253°
2026-05-05 00:40 33.29560 -96.53295 10620 ft 265 kts 253°
2026-05-05 00:40 33.28975 -96.55377 10311 ft 264 kts 254°
2026-05-05 00:40 33.28648 -96.57511 10010 ft 261 kts 267°
2026-05-05 00:40 33.28556 -96.59680 9699 ft 261 kts 267°
2026-05-05 00:41 33.28460 -96.61839 9376 ft 260 kts 267°
2026-05-05 00:41 33.28365 -96.63986 9070 ft 258 kts 267°
2026-05-05 00:41 33.28268 -96.66124 8751 ft 257 kts 266°
2026-05-05 00:41 33.28170 -96.68241 8385 ft 254 kts 266°
2026-05-05 00:42 33.28071 -96.70341 8029 ft 252 kts 266°
2026-05-05 00:42 33.27974 -96.72423 7699 ft 250 kts 266°
2026-05-05 00:42 33.27877 -96.74482 7421 ft 245 kts 266°
2026-05-05 00:42 33.27782 -96.76496 7163 ft 244 kts 266°
2026-05-05 00:43 33.27685 -96.78523 6830 ft 245 kts 265°
2026-05-05 00:43 33.27585 -96.80561 6525 ft 246 kts 265°
2026-05-05 00:43 33.27487 -96.82595 6229 ft 245 kts 265°
2026-05-05 00:43 33.27394 -96.84618 6019 ft 242 kts 265°
2026-05-05 00:44 33.27317 -96.86625 5996 ft 242 kts 265°
2026-05-05 00:44 33.27246 -96.88643 5996 ft 244 kts 265°
2026-05-05 00:44 33.27176 -96.90675 5994 ft 244 kts 265°
2026-05-05 00:44 33.27109 -96.92709 5997 ft 245 kts 265°
2026-05-05 00:45 33.27039 -96.94734 5997 ft 245 kts 265°
2026-05-05 00:45 33.26936 -96.96768 5998 ft 245 kts 259°
2026-05-05 00:45 33.26334 -96.98647 6000 ft 244 kts 236°
2026-05-05 00:45 33.25096 -97.00024 6000 ft 248 kts 211°
2026-05-05 00:46 33.23490 -97.00823 5999 ft 251 kts 205°
2026-05-05 00:46 33.21857 -97.01561 5999 ft 250 kts 204°
2026-05-05 00:46 33.20249 -97.02236 5918 ft 243 kts 197°
2026-05-05 00:46 33.18570 -97.02472 5665 ft 243 kts 186°
2026-05-05 00:47 33.16904 -97.02479 5363 ft 241 kts 184°
2026-05-05 00:47 33.15266 -97.02470 5064 ft 230 kts 185°
2026-05-05 00:47 33.13726 -97.02473 4783 ft 211 kts 185°
2026-05-05 00:47 33.12329 -97.02479 4532 ft 192 kts 186°
2026-05-05 00:48 33.11014 -97.02489 4293 ft 188 kts 185°
2026-05-05 00:48 33.09731 -97.02498 4044 ft 182 kts 185°
2026-05-05 00:48 33.08470 -97.02506 3803 ft 180 kts 184°
2026-05-05 00:48 33.07227 -97.02513 3576 ft 177 kts 183°
2026-05-05 00:49 33.06014 -97.02519 3350 ft 172 kts 184°
2026-05-05 00:49 33.04824 -97.02525 3130 ft 171 kts 183°
2026-05-05 00:49 33.03635 -97.02532 2908 ft 170 kts 183°
2026-05-05 00:49 33.02460 -97.02539 2698 ft 165 kts 182°
2026-05-05 00:50 33.01338 -97.02544 2498 ft 155 kts 182°
2026-05-05 00:50 33.00308 -97.02550 2307 ft 144 kts 181°
2026-05-05 00:50 32.99321 -97.02555 2119 ft 140 kts 181°
2026-05-05 00:50 32.98350 -97.02561 1936 ft 139 kts 181°
2026-05-05 00:51 32.97389 -97.02566 1757 ft 137 kts 181°
2026-05-05 00:51 32.96430 -97.02571 1585 ft 138 kts 180°
2026-05-05 00:51 32.95471 -97.02576 1383 ft 137 kts 179°
2026-05-05 00:51 32.94517 -97.02585 1177 ft 135 kts 178°
2026-05-05 00:52 32.93559 -97.02584 1040 ft 138 kts 178°
2026-05-05 00:52 32.92599 -97.02600 814 ft 137 kts 176°
2026-05-05 00:52 32.91644 -97.02593 632 ft 137 kts 179°
2026-05-05 00:52 32.90749 -97.02597 578 ft 114 kts 180°
2026-05-05 00:53 32.90130 -97.02606 573 ft 64 kts 180°
2026-05-05 00:53 32.89813 -97.02606 570 ft 35 kts 181°
2026-05-05 00:53 32.89594 -97.02665 570 ft 30 kts 206°
2026-05-05 00:53 32.89429 -97.02783 571 ft 21 kts 217°
2026-05-05 00:54 32.89393 -97.02870 573 ft 7 kts 262°
2026-05-05 00:54 32.89392 -97.02935 575 ft 12 kts 271°
2026-05-05 00:54 32.89394 -97.03073 576 ft 18 kts 270°
2026-05-05 00:54 32.89394 -97.03228 579 ft 16 kts 271°
2026-05-05 00:55 32.89364 -97.03316 584 ft 12 kts 202°
2026-05-05 00:55 32.89274 -97.03317 583 ft 14 kts 179°
2026-05-05 00:55 32.89172 -97.03320 583 ft 15 kts 182°
2026-05-05 00:55 32.89072 -97.03323 583 ft 15 kts 181°
2026-05-05 00:56 32.88980 -97.03355 584 ft 14 kts 225°
2026-05-05 00:56 32.88935 -97.03447 584 ft 10 kts 246°
2026-05-05 00:56 32.88898 -97.03484 584 ft 8 kts 205°
2026-05-05 00:56 32.88843 -97.03514 584 ft 8 kts 208°
2026-05-05 00:57 32.88797 -97.03553 584 ft 8 kts 217°
2026-05-05 00:57 32.88791 -97.03590 584 ft 5 kts 304°
2026-05-05 00:57 32.88810 -97.03609 584 ft 3 kts 321°
2026-05-05 00:57 32.88820 -97.03619 584 ft 0 kts 322°